www.pogodaiklimat.ru

Погода и климат >> Архив погоды >> Россия >> Ямало-Ненецкий АО >> Надым


АРХИВ ПОГОДЫ в Надыме

Время (UTC), дата Ветер
(напр.,м/с)
 
Видим.   Явления Облачность Т
(С)
Тd
(С)
f
(%)
Тe
(С)
Тes
(С)
Комфортность P
(гПа)
Po
(гПа)
Тmin
(С)
Tmax
(С)
R
(мм)
R24
(мм)
S
(см)
00 17.01 ЮВ 1 10 км в посл. час снег 10/0
[Ci fib]
-17.3 -18.9 87 -20 -20 1011.8 1009.9
03 17.01 ЮВ 2 10 км слаб. снег 10/0
[As op]
-19.1 -20.9 86 -25 -25 1011.3 1009.4 -19.6 0.2 62
06 17.01 ЮВ 2 10 км {снег} 10/0
[Ac und]
-16.7 -18.4 87 -22 -22 1009.8 1007.9
09 17.01 ЮВ 4 2000 м ливневой снег 10/8 500 м
[Cb cap Ac und]
-11.3 -12.7 89 -18 -18 1005.8 1004.0
12 17.01 ЮВ 6 4000 м метель {ливн. осадки, снег} 10/0
[Ac und]
-6.5 -8.5 86 -15 -15 1001.9 1000.1
18 17.01 Ю 4-12
{12}
10 км позёмок 10/0
[Ci fib]
-5.3 -8.7 77 -12 -12 997.8 996.1
00 18.01 Ю 3
{10}
2000 м ливневой снег {метель} 10/10 300 м
[Cb cap]
-7.7 -9.1 90 -14 -14 994.5 992.7
06 18.01 Ю 4 10 км слаб. снег 10/5 300 м
[Sc As op]
-7.4 -9.1 88 -14 -14 994.5 992.7
09 18.01 Ю 3 4000 м слаб. снег 10/6 600 м
[Sc As op]
-7.2 -9.0 87 -13 -13 995.0 993.2
12 18.01 Ю 3 10 км слаб. снег 10/6 300 м
[Sc As op]
-7.3 -9.1 87 -13 -13 995.4 993.6
15 18.01 Ю 3 4000 м слаб. снег 10/6 300 м
[Sc As op]
-7.2 -8.4 91 -13 -13 994.7 992.9 -7.0 0.7
18 18.01 Ю 3
{10}
10 км в посл. час снег 8/0
[Ac trans Ci fib]
-8.7 -10.6 86 -15 -15 993.6 991.8
21 18.01 Ю 2 4000 м слаб. снег 10/6 600 м
[Sc As op]
-9.5 -10.9 90 -14 -14 992.4 990.6
00 19.01 Ю 2 4000 м слаб. снег 10/6 300 м
[Sc As op]
-9.7 -11.0 90 -14 -14 990.7 988.9
03 19.01 ЮЗ 1 10 км слаб. снег 10/0
[As op]
-10.8 -11.9 92 -13 -13 990.0 988.2 -10.8 3 66
06 19.01 ЮЗ 2 10 км слаб. снег ясно -10.3 -11.7 89 -15 -15 991.5 989.7 -11.2
09 19.01 З 2 10 км слаб. снег 10/4 450 м
[Sc As op]
-12.8 -14.5 87 -17 -17 995.1 993.2
12 19.01 ЮЗ 2 10 км {снег} 6/0
[Ac trans Ci fib]
-18.9 -20.7 86 -25 -25 998.9 997.0
15 19.01 ЮЗ 1 10 км ясно -21.1 -23.3 82 -24 -24 1000.8 998.9 -10.3 0.5
18 19.01 ЮЗ 2 10 км ясно -21.2 -23.3 83 -27 -27 1001.4 999.5
21 19.01 ЮЗ 1 10 км ясно -23.4 -25.7 81 -27 -27 1002.7 1000.8
00 20.01 ЮЗ 1 10 км 8/0
[Ac trans]
-21.1 -23.3 82 -24 -24 1003.5 1001.6
03 20.01 ЮЗ 1 10 км 8/8 1000 м
[Sc]
-18.3 -20.2 85 -21 -21 1005.1 1003.3 -24.1 66
06 20.01 ЮЗ 1 10 км ясно -22.3 -24.7 81 -26 -25 1007.7 1005.8
09 20.01 ЮЗ 1 10 км ясно -23.0 -25.4 81 -26 -26 1009.8 1007.9
12 20.01 Ю 1 10 км ясно -23.5 -25.8 81 -27 -27 1011.3 1009.4
15 20.01 ЮВ 1 10 км ясно -24.6 -27.0 80 -28 -28 1012.1 1010.1 -18.3
18 20.01 ЮВ 1 10 км ясно -24.6 -27.2 79 -28 -28 1012.7 1010.7
21 20.01 В 1 10 км ясно -26.2 -28.9 78 -30 -30 1012.8 1010.8
00 21.01 ЮВ 1 10 км 10/0
[Ac und]
-24.6 -27.1 80 -28 -28 1011.8 1009.9
03 21.01 В 2 10 км 10/0
[Ac und]
-24.6 -27.1 80 -31 -31 опасность
обморожения
1011.8 1007.3 -26.7 66
06 21.01 В 4 10 км слаб. ливневой снег 10/8 660 м
[Cb cap Ac und]
-13.3 -15.0 87 -21 -21 1006.0 1004.1
09 21.01 В 4 4000 м слаб. ливневой снег 10/10 480 м
[Sc]
-12.7 -14.8 84 -20 -20 1003.0 1001.2
12 21.01 В 3 2000 м ливневой снег 10/10 480 м
[Sc]
-12.8 -14.6 86 -19 -19 1000.3 998.5
15 21.01 В 1 2000 м снег {ливн. осадки} 10/0
[As op]
-12.4 -13.8 89 -15 -15 998.0 996.2 -12.4 4
18 21.01 Ю 1 4000 м слаб. снег 10/0
[As op]
-13.6 -14.9 90 -16 -16 998.1 996.3
21 21.01 ЮЗ 3 10 км слаб. снег 10/3 600 м
[Sc As op]
-17.6 -19.6 84 -25 -25 1000.0 998.1
00 22.01 ЮЗ 2 10 км {снег} 6/3 600 м
[Sc Ac trans]
-22.2 -24.7 80 -28 -28 1001.7 999.8
03 22.01 Ю 2 10 км 6/0
[Ac trans]
-24.8 -27.3 80 -31 -31 опасность
обморожения
1002.9 1001.0 -24.8 0.7 67
06 22.01 Ю 3 10 км 8/5 150 м
[St Ac As]
-23.0 -25.3 81 -31 -31 опасность
обморожения
1003.8 1001.9
09 22.01 ЮВ 2 20 км {снег} 3/0
[Ci fib]
-22.4 -24.7 81 -29 -29 1004.7 1002.8
12 22.01 Ю 2 10 км {снег} 4/0
[Ac trans]
-22.0 -24.2 82 -28 -28 1005.3 1003.4
15 22.01 ЮВ 2 10 км в посл. час снег 4/4 1000 м
[Sc]
-23.1 -25.5 81 -29 -29 1005.9 1004.0 -21.3 0.2
18 22.01 ЮВ 2 10 км в посл. час снег 10/10 150 м
[Sc]
-23.3 -25.7 81 -30 -30 1006.3 1004.4
21 22.01 В 2 10 км слаб. снег 10/10 300 м
[Sc]
-23.6 -26.0 81 -30 -30 1006.8 1004.9
00 23.01 ЮВ 2 10 км {снег} 10/6 300 м
[St Ci fib]
-25.1 -27.7 79 -32 -32 опасность
обморожения
1007.0 1005.0
03 23.01 ЮВ 1 10 км в посл. час снег 9/0
[Ac trans]
-25.7 -28.4 78 -29 -29 1007.3 1005.3 -26.8 67
06 23.01 штиль 0 10 км слаб. снег 10/3 1000 м
[Sc As op]
-26.1 -28.8 78 -26 -26 1008.5 1006.6 -27.8
09 23.01 Ю 1 10 км {снег} 8/0
[Ac trans Ci fib]
-24.6 -27.1 80 -28 -28 1010.0 1008.1
12 23.01 ЮВ 1 10 км {снег} 10/0
[Ci fib]
-28.1 -31.2 75 -32 -32 опасность
обморожения
1011.4 1009.4
15 23.01 ЮВ 1 10 км слаб. снег 10/5 600 м
[Sc As op]
-26.1 -28.9 77 -30 -30 1012.8 1010.9 -23.9 0.2
18 23.01 ЮВ 1 10 км в посл. час снег 6/6 1000 м
[Sc]
-25.4 -28.1 78 -29 -29 1013.8 1011.8

 

Местоположение метеостанции Надым (Ямало-Ненецкий АО, Россия): широта 65.47 долгота 72.67 высота над уровнем моря 19 м.

В архиве по умолчанию представлена погода в Надыме за последнюю неделю. Архивные данные за месяц целиком и за предыдущие месяцы, начиная с января 2011 года, Вы можете получить, выбрав интересующий диапазон дат из раскрывающегося списка и нажав кнопку "Ввод!".


*Определитесь, кто Вы:
робот инопланетянин человек

Внимание! Время в таблицах - всемирное. Для получения местного времени необходимо прибавить поправку, которая равна 5 ч.

Смотрите также архив погоды в соседних городах и на ближайших метеорологических станциях:

Погода в Пангодах (Ямало-Ненецкий АО, Россия) (93 км)
Погода в Лонг-Югане (Ямало-Ненецкий АО, Россия) (112 км)
Погода в Ныде (Ямало-Ненецкий АО, Россия) (130 км)
Погода в Полуе (Ямало-Ненецкий АО, Россия) (193 км)
Погода в Новом Уренгое (Ямало-Ненецкий АО, Россия) (200 км)
Погода в Новом Порте (Ямало-Ненецкий АО, Россия) (246 км)
Погода в Тарко-Сале (Ямало-Ненецкий АО, Россия) (248 км)
Погода в Юильске (Ханты-Мансийский АО, Россия) (248 км)
Погода в Белоярске (Ямало-Ненецкий АО, Россия) (257 км)
Погода в Уренгое (Ямало-Ненецкий АО, Россия) (267 км)

Пояснения к столбцам:

Ветер - указаны скорость ветра в м/с - средняя за 10 мин, порывы в срок и между сроками (в фигурных скобках) и направление, откуда дует ветер: С - северный, СВ - северо-восточный, В - восточный, ЮВ - юго-восточный, Ю - южный, ЮЗ - юго-западный, З - западный, СЗ - северо-западный.
Видимость - горизонтальная дальность видимости в метрах или километрах. При видимости от 1 до 10 км при отсутствии осадков обычно наблюдается дымка, при ухудшении видимости до 1 км и менее - туман. В сухую погоду видимость может ухудшаться дымом, пылью или мглою.
Явления - указаны атмосферные явления, наблюдавшиеся в срок или в последний час перед сроком; фигурными скобками обозначены явления, наблюдавшиеся между сроками (за 1-3 часа до срока); квадратными скобками обозначены град или гололедные отложения с указанием их диаметра в мм.
Облачность - указаны через наклонную черту общая и нижняя облачность в баллах и высота нижней границы облаков в метрах; квадратными скобками обозначены формы облаков: Ci - перистые, Cs - перисто-слоистые, Cc - перисто-кучевые, Ac - высококучевые, As - высокослоистые, Sc - слоисто-кучевые, Ns - слоисто-дождевые, Cu - кучевые, Cb - кучево-дождевые. Подробнее классификацию облаков см. в Атласе облаков (PDF).
T - Температура воздуха - температура, измеренная на высоте 2 м над землей.
Td - Температура точки росы - температура, при понижении до которой содержащийся в воздухе водяной пар достигнет насыщения.
f - Относительная влажность воздуха - влажноcть воздуха, измеренная на высоте 2 м над землей.
Te - Эффективная температура - температура, которую ощущает одетый по сезону человек в тени. Характеристика душности погоды. При расчете учитывается влияние влажности воздуха и скорости ветра на теплоощущения человека.
Tes - Эффективная температура на солнце - температура, которую ощущает человек, с поправкой на солнечный нагрев. Характеристика знойности погоды. Зависит от высоты солнца над горизонтом, облачности и скорости ветра. Ночью, в пасмурную погоду, а также при ветре 12 м/с и более поправка равна нулю.
P - Атмосферное давление - приведенное к уровню моря атмосферное давление.
Po - Атмосферное давление - измеренное на уровне метеостанции атмосферное давление.
Tmin - Минимальная температура - минимум температуры воздуха на высоте 2 м над землей.
Tmax - Максимальная температура - максимум температуры воздуха на высоте 2 м над землей.
R - Количество осадков - Количество выпавших осадков за период времени, мм. При наведении курсора мыши на число - период времени, за который выпало указанное количество осадков.
R24 - Количество осадков - Количество выпавших осадков за 24 часа, мм.
S - Снежный покров - Высота снежного покрова, см. При наведении курсора мыши на число - состояние снежного покрова и степень покрытия местности в баллах.